GW3655 Weather Reports


time (UTC)temp
F
wind
direction
speed
knots
gust
knots
rain 1hr
in
rain 24hr
in
rain mn
in
humidity
%
barometer
mb
20260504195000 59 229 10.4 20.0 0.00 0.00 0.00 68 29.8
20260504194500 59 183 14.8 25.2 0.00 0.00 0.00 68 29.8
20260504194000 59 205 9.6 21.7 0.00 0.00 0.00 67 29.8
20260504193500 59 207 21.7 22.6 0.00 0.00 0.00 67 29.8
20260504192000 59 210 9.6 17.4 0.00 0.00 0.00 67 29.8
20260504191500 59 217 11.3 20.0 0.00 0.00 0.00 67 29.8
20260504191000 59 205 9.6 24.3 0.00 0.00 0.00 67 29.9
20260504190500 59 226 20.0 20.0 0.00 0.00 0.00 68 29.8
20260504190000 59 196 13.9 19.1 0.00 0.00 0.00 68 29.8
20260504185508 59 221 9.6 20.9 0.00 0.00 0.00 66 29.9
20260504185000 59 193 9.6 16.5 0.00 0.00 0.00 66 29.9
20260504184000 59 209 17.4 20.0 0.00 0.00 0.00 66 29.9
20260504183500 59 209 14.8 22.6 0.00 0.00 0.00 66 29.9
20260504183000 58 215 17.4 25.2 0.00 0.00 0.00 67 29.9
20260504182500 59 206 13.9 19.1 0.00 0.00 0.00 67 29.9
20260504182000 58 203 18.2 23.5 0.00 0.00 0.00 68 29.9
20260504181500 58 216 14.8 25.2 0.00 0.00 0.00 69 29.9
20260504181000 58 206 14.8 23.5 0.00 0.00 0.00 68 29.9
20260504180500 58 211 16.5 24.3 0.00 0.00 0.00 68 29.9
20260504180000 58 201 18.2 23.5 0.00 0.00 0.00 69 29.9
20260504175500 58 209 19.1 25.2 0.00 0.00 0.00 69 29.9
20260504175000 58 216 19.1 20.9 0.00 0.00 0.00 69 29.9
20260504174500 58 214 11.3 17.4 0.00 0.00 0.00 70 29.9
20260504174000 58 200 15.6 24.3 0.00 0.00 0.00 70 29.9
20260504173501 58 217 15.6 21.7 0.00 0.00 0.00 69 29.9
20260504172500 58 213 18.2 20.9 0.00 0.00 0.00 71 29.9
20260504172000 58 202 11.3 18.2 0.00 0.00 0.00 70 29.9
20260504171500 57 210 11.3 23.5 0.00 0.00 0.00 72 29.9
20260504171000 58 210 9.6 20.9 0.00 0.00 0.00 71 29.9
20260504170500 57 207 10.4 16.5 0.00 0.00 0.00 73 29.9
20260504151000 57 246 10.4 12.2 0.00 0.00 0.00 67 29.9
20260504141000 56 210 13.0 19.1 0.00 0.00 0.00 66 29.9
20260504140500 56 199 14.8 19.1 0.00 0.00 0.00 65 29.9
20260504130500 56 227 14.8 19.1 0.00 0.00 0.00 58 29.9
20260504110500 52 217 9.6 15.6 0.00 0.00 0.00 59 29.9
20260504081500 51 252 5.2 7.8 0.00 0.00 0.00 60 29.9
20260504080501 51 257 7.8 7.8 0.00 0.00 0.00 60 29.9
20260504050000 51 216 5.2 7.8 0.00 0.00 0.00 60 29.9
20260504045500 51 214 4.3 7.8 0.00 0.00 0.00 59 29.9
20260504045000 51 239 7.0 8.7 0.00 0.00 0.00 59 29.9
20260504044000 52 233 3.5 7.0 0.00 0.00 0.00 59 29.9
20260504043500 51 225 9.6 11.3 0.00 0.00 0.00 59 29.9
20260504042500 52 231 3.5 8.7 0.00 0.00 0.00 56 29.9
20260504042000 52 257 3.5 5.2 0.00 0.00 0.00 56 29.9
20260504041500 52 215 5.2 7.0 0.00 0.00 0.00 55 29.9
20260504040500 52 234 3.5 6.1 0.00 0.00 0.00 55 29.9
20260504035500 52 215 3.5 4.3 0.00 0.00 0.00 54 29.9
20260504035000 53 236 3.5 5.2 0.00 0.00 0.00 53 29.9
20260504034000 53 260 4.3 5.2 0.00 0.00 0.00 52 29.9
20260504033000 52 213 3.5 7.0 0.00 0.00 0.00 56 29.9
20260504032500 53 240 5.2 7.8 0.00 0.00 0.00 56 29.9
20260504032000 52 208 4.3 9.6 0.00 0.00 0.00 56 29.9
20260504030500 52 214 3.5 6.1 0.00 0.00 0.00 56 29.9
20260504025500 52 215 2.6 5.2 0.00 0.00 0.00 54 29.9
20260504025000 52 238 3.5 5.2 0.00 0.00 0.00 54 29.9
20260504024500 52 240 4.3 5.2 0.00 0.00 0.00 54 29.9
20260504024000 52 218 2.6 4.3 0.00 0.00 0.00 53 29.9
20260504023500 52 218 3.5 5.2 0.00 0.00 0.00 52 29.9
20260504022000 53 214 3.5 6.1 0.00 0.00 0.00 51 29.9
20260504020000 53 202 2.6 3.5 0.00 0.00 0.00 45 29.9
20260504015500 53 232 1.7 3.5 0.00 0.00 0.00 44 29.9
20260504014500 53 213 2.6 4.3 0.00 0.00 0.00 40 29.9
20260504013500 54 225 1.7 3.5 0.00 0.00 0.00 34 29.9
20260504013000 54 211 1.7 2.6 0.00 0.00 0.00 34 29.9
20260504012500 54 221 2.6 3.5 0.00 0.00 0.00 33 29.9
20260504012000 54 205 2.6 3.5 0.00 0.00 0.00 34 29.9
20260504011500 54 209 2.6 3.5 0.00 0.00 0.00 33 29.9
20260504010500 54 206 2.6 3.5 0.00 0.00 0.00 33 29.9
20260504010000 54 207 1.7 1.7 0.00 0.00 0.00 34 29.9
20260504005500 55 207 0.9 1.7 0.00 0.00 0.00 32 29.9
20260504005000 55 256 1.7 2.6 0.00 0.00 0.00 30 29.9
20260504004500 55 268 0.9 2.6 0.00 0.00 0.00 30 29.9
20260504004000 56 298 1.7 1.7 0.00 0.00 0.00 29 29.9
20260504003501 56 277 2.6 3.5 0.00 0.00 0.00 29 29.8
20260504003000 56 265 2.6 3.5 0.00 0.00 0.00 29 29.8
20260504002501 56 279 1.7 2.6 0.00 0.00 0.00 28 29.8
20260504000500 57 291 4.3 4.3 0.00 0.00 0.00 27 29.8
20260504000000 57 283 2.6 4.3 0.00 0.00 0.00 27 29.8
20260503235500 57 294 1.7 5.2 0.00 0.00 0.00 27 29.8
20260503235000 57 281 5.2 8.7 0.00 0.00 0.00 26 29.8
20260503234500 58 275 5.2 6.1 0.00 0.00 0.00 26 29.8
20260503234000 58 241 3.5 6.1 0.00 0.00 0.00 26 29.8
20260503233500 58 275 3.5 7.0 0.00 0.00 0.00 25 29.8
20260503232500 58 283 7.0 11.3 0.00 0.00 0.00 24 29.8
20260503232000 59 278 9.6 13.0 0.00 0.00 0.00 24 29.8
20260503231500 59 250 5.2 12.2 0.00 0.00 0.00 24 29.8
20260503231000 59 260 10.4 14.8 0.00 0.00 0.00 24 29.8
20260503225000 59 297 8.7 14.8 0.00 0.00 0.00 24 29.8
20260503223000 59 288 13.9 15.6 0.00 0.00 0.00 24 29.8
20260503222001 59 286 13.0 20.9 0.00 0.00 0.00 24 29.8
20260503221500 59 307 4.3 15.6 0.00 0.00 0.00 24 29.8
20260503221000 59 254 2.6 16.5 0.00 0.00 0.00 25 29.8
20260503220500 59 306 7.0 13.0 0.00 0.00 0.00 25 29.8
20260503220001 59 359 2.6 14.8 0.00 0.00 0.00 25 29.8
20260503215500 59 257 13.0 18.2 0.00 0.00 0.00 25 29.8
20260503215000 59 271 7.8 19.1 0.00 0.00 0.00 25 29.8
20260503214500 59 278 10.4 14.8 0.00 0.00 0.00 25 29.8
20260503214000 59 287 7.8 18.2 0.00 0.00 0.00 25 29.8
20260503213500 59 274 13.0 14.8 0.00 0.00 0.00 25 29.8
20260503213000 58 286 6.1 19.1 0.00 0.00 0.00 25 29.8
20260503212500 58 294 11.3 17.4 0.00 0.00 0.00 26 29.8
20260503212000 58 249 17.4 23.5 0.00 0.00 0.00 25 29.8
20260503211500 58 292 15.6 26.1 0.00 0.00 0.00 25 29.8
20260503211000 58 308 6.1 14.8 0.00 0.00 0.00 26 29.8
20260503210500 58 277 14.8 19.1 0.00 0.00 0.00 26 29.8
20260503210000 58 286 13.0 20.9 0.00 0.00 0.00 26 29.8
20260503205500 58 291 16.5 19.1 0.00 0.00 0.00 26 29.8
20260503205000 58 269 7.8 18.2 0.00 0.00 0.00 27 29.8
20260503204500 57 309 10.4 20.0 0.00 0.00 0.00 27 29.8
20260503204000 58 283 9.6 26.1 0.00 0.00 0.00 27 29.8
20260503203500 58 276 17.4 24.3 0.00 0.00 0.00 28 29.8
20260503203001 58 344 7.8 16.5 0.00 0.00 0.00 28 29.8
20260503202500 58 250 6.1 10.4 0.00 0.00 0.00 29 29.8
20260503202000 57 295 10.4 17.4 0.00 0.00 0.00 29 29.8
20260503201500 57 269 11.3 17.4 0.00 0.00 0.00 29 29.8
20260503201000 57 307 13.0 20.0 0.00 0.00 0.00 29 29.8
20260503200500 56 329 7.8 22.6 0.00 0.00 0.00 29 29.8
20260503200000 57 266 13.9 23.5 0.00 0.00 0.00 29 29.8
20260503195500 57 284 6.1 20.9 0.00 0.00 0.00 30 29.8